TimeEDT,TemperatureF,Dew PointF,Humidity,Sea Level PressureIn,VisibilityMPH,Wind Direction,Wind SpeedMPH,Gust SpeedMPH,PrecipitationIn,Events,Conditions,WindDirDegrees,DateUTC
12:15 AM,80.6,71.6,74,30.02,10.0,South,4.6,-,N/A,,Clear,170,2013-07-10 04:15:00
12:35 AM,80.6,71.6,74,30.02,10.0,South,6.9,-,N/A,,Clear,180,2013-07-10 04:35:00
12:55 AM,80.6,71.6,74,30.02,10.0,South,6.9,-,N/A,,Clear,190,2013-07-10 04:55:00
1:15 AM,78.8,71.6,78,30.02,10.0,South,5.8,-,N/A,,Clear,190,2013-07-10 05:15:00
1:35 AM,78.8,71.6,78,30.01,10.0,South,5.8,-,N/A,,Clear,180,2013-07-10 05:35:00
1:55 AM,78.8,71.6,78,30.01,10.0,South,4.6,-,N/A,,Clear,190,2013-07-10 05:55:00
2:15 AM,78.8,71.6,78,30.00,10.0,South,4.6,-,N/A,,Clear,180,2013-07-10 06:15:00
2:55 AM,77.0,71.6,83,30.00,10.0,South,5.8,-,N/A,,Clear,190,2013-07-10 06:55:00
3:35 AM,77.0,71.6,83,30.00,10.0,South,6.9,-,N/A,,Clear,190,2013-07-10 07:35:00
3:55 AM,77.0,71.6,83,30.00,10.0,South,6.9,-,N/A,,Clear,190,2013-07-10 07:55:00
4:15 AM,77.0,71.6,83,30.00,10.0,South,5.8,-,N/A,,Clear,180,2013-07-10 08:15:00
4:35 AM,77.0,71.6,83,29.99,10.0,South,8.1,-,N/A,,Clear,180,2013-07-10 08:35:00
4:55 AM,77.0,71.6,83,29.99,10.0,South,6.9,-,N/A,,Clear,190,2013-07-10 08:55:00
5:15 AM,77.0,71.6,83,29.99,10.0,SSW,5.8,-,N/A,,Clear,200,2013-07-10 09:15:00
5:35 AM,77.0,71.6,83,29.98,10.0,South,6.9,-,N/A,,Clear,190,2013-07-10 09:35:00
5:55 AM,75.2,71.6,89,29.98,10.0,South,5.8,-,N/A,,Clear,180,2013-07-10 09:55:00
6:15 AM,75.2,71.6,89,29.98,10.0,South,5.8,-,N/A,,Clear,190,2013-07-10 10:15:00
6:35 AM,75.2,71.6,89,29.98,10.0,South,5.8,-,N/A,,Clear,170,2013-07-10 10:35:00
6:55 AM,75.2,71.6,89,29.97,10.0,South,4.6,-,N/A,,Clear,170,2013-07-10 10:55:00
7:15 AM,75.2,71.6,89,29.97,10.0,South,5.8,-,N/A,,Clear,170,2013-07-10 11:15:00
7:35 AM,77.0,71.6,83,29.97,10.0,SSE,5.8,-,N/A,,Clear,160,2013-07-10 11:35:00
7:55 AM,77.0,71.6,83,29.96,10.0,South,6.9,-,N/A,,Clear,170,2013-07-10 11:55:00
8:15 AM,78.8,71.6,78,29.97,10.0,South,5.8,-,N/A,,Clear,190,2013-07-10 12:15:00
8:35 AM,78.8,71.6,78,29.98,10.0,South,8.1,-,N/A,,Clear,190,2013-07-10 12:35:00
8:55 AM,78.8,73.4,83,29.98,10.0,SSW,10.4,-,N/A,,Clear,200,2013-07-10 12:55:00
9:15 AM,80.6,73.4,79,29.98,10.0,SSW,10.4,-,N/A,,Partly Cloudy,200,2013-07-10 13:15:00
9:35 AM,80.6,73.4,79,29.98,10.0,SSW,11.5,17.3,N/A,,Clear,200,2013-07-10 13:35:00
9:55 AM,82.4,73.4,74,29.98,10.0,SSW,10.4,-,N/A,,Clear,210,2013-07-10 13:55:00
10:15 AM,82.4,75.2,79,29.96,10.0,SSW,10.4,-,N/A,,Clear,210,2013-07-10 14:15:00
10:35 AM,82.4,73.4,74,29.96,10.0,WSW,12.7,-,N/A,,Clear,240,2013-07-10 14:35:00
10:55 AM,82.4,73.4,74,29.95,10.0,SW,10.4,-,N/A,,Clear,230,2013-07-10 14:55:00
11:15 AM,84.2,75.2,74,29.93,10.0,SSW,8.1,-,N/A,,Clear,210,2013-07-10 15:15:00
11:35 AM,84.2,75.2,74,29.95,10.0,WSW,10.4,-,N/A,,Partly Cloudy,250,2013-07-10 15:35:00
11:55 AM,84.2,75.2,74,29.97,10.0,West,15.0,18.4,N/A,,Mostly Cloudy,260,2013-07-10 15:55:00
12:15 PM,84.2,75.2,74,29.99,10.0,West,9.2,-,N/A,,Mostly Cloudy,260,2013-07-10 16:15:00
12:35 PM,84.2,75.2,74,30.00,10.0,West,11.5,-,N/A,,Mostly Cloudy,280,2013-07-10 16:35:00
1:15 PM,82.4,73.4,74,30.03,10.0,WNW,15.0,20.7,N/A,,Scattered Clouds,300,2013-07-10 17:15:00
1:35 PM,78.8,71.6,78,30.04,8.0,WNW,21.9,26.5,N/A,Thunderstorm,Thunderstorm,300,2013-07-10 17:35:00
1:55 PM,73.4,66.2,78,30.05,10.0,NNW,15.0,25.3,N/A,Thunderstorm,Thunderstorm,330,2013-07-10 17:55:00
2:15 PM,73.4,69.8,88,30.02,10.0,NNW,10.4,17.3,N/A,Thunderstorm,Scattered Clouds,330,2013-07-10 18:15:00
2:35 PM,75.2,69.8,83,30.02,10.0,NNW,11.5,19.6,N/A,,Partly Cloudy,340,2013-07-10 18:35:00
2:55 PM,75.2,69.8,83,29.97,10.0,North,11.5,-,0.06,,Partly Cloudy,10,2013-07-10 18:55:00
3:15 PM,77.0,69.8,78,29.94,7.0,North,12.7,17.3,N/A,,Clear,10,2013-07-10 19:15:00
3:35 PM,78.8,69.8,74,29.94,10.0,North,8.1,-,N/A,,Clear,10,2013-07-10 19:35:00
3:55 PM,78.8,69.8,74,29.92,10.0,NE,5.8,-,N/A,,Clear,40,2013-07-10 19:55:00
4:15 PM,80.6,69.8,70,29.89,10.0,NE,5.8,-,N/A,,Clear,40,2013-07-10 20:15:00
4:35 PM,80.6,69.8,70,29.89,10.0,NW,4.6,-,N/A,,Clear,320,2013-07-10 20:35:00
4:55 PM,82.4,68.0,62,29.88,10.0,SSW,3.5,-,N/A,,Clear,210,2013-07-10 20:55:00
5:15 PM,82.4,69.8,66,29.90,10.0,WSW,5.8,-,N/A,,Clear,240,2013-07-10 21:15:00
5:35 PM,82.4,69.8,66,29.90,10.0,WSW,9.2,-,N/A,,Clear,250,2013-07-10 21:35:00
5:55 PM,82.4,71.6,70,29.92,10.0,West,6.9,-,N/A,,Clear,260,2013-07-10 21:55:00
6:15 PM,84.2,69.8,62,29.92,10.0,NW,11.5,-,N/A,,Partly Cloudy,310,2013-07-10 22:15:00
6:35 PM,84.2,69.8,62,29.92,10.0,WNW,6.9,-,N/A,,Clear,300,2013-07-10 22:35:00
6:55 PM,82.4,69.8,66,29.92,10.0,WNW,10.4,-,N/A,,Clear,300,2013-07-10 22:55:00
7:15 PM,82.4,69.8,66,29.92,10.0,West,6.9,-,N/A,,Clear,280,2013-07-10 23:15:00
7:35 PM,82.4,69.8,66,29.92,10.0,WNW,5.8,-,N/A,,Clear,300,2013-07-10 23:35:00
7:55 PM,82.4,69.8,66,29.93,10.0,SW,5.8,-,N/A,,Clear,220,2013-07-10 23:55:00
8:15 PM,80.6,69.8,70,29.92,10.0,WSW,4.6,-,N/A,,Clear,240,2013-07-11 00:15:00
8:35 PM,80.6,69.8,70,29.93,10.0,West,3.5,-,N/A,,Scattered Clouds,260,2013-07-11 00:35:00
8:55 PM,80.6,71.6,74,29.93,10.0,West,4.6,-,N/A,,Mostly Cloudy,280,2013-07-11 00:55:00
9:15 PM,78.8,69.8,74,29.94,10.0,NW,3.5,-,N/A,,Partly Cloudy,320,2013-07-11 01:15:00
9:35 PM,77.0,69.8,78,29.94,10.0,NW,5.8,-,N/A,,Clear,310,2013-07-11 01:35:00
9:55 PM,77.0,69.8,78,29.95,10.0,WNW,5.8,-,N/A,,Clear,300,2013-07-11 01:55:00
10:15 PM,75.2,69.8,83,29.95,10.0,WSW,5.8,-,N/A,,Clear,240,2013-07-11 02:15:00
10:35 PM,75.2,69.8,83,29.95,10.0,SE,3.5,-,N/A,,Clear,140,2013-07-11 02:35:00
10:55 PM,75.2,69.8,83,29.96,10.0,SE,3.5,-,N/A,,Partly Cloudy,130,2013-07-11 02:55:00
11:15 PM,75.2,69.8,83,29.96,10.0,Calm,Calm,-,N/A,,Clear,0,2013-07-11 03:15:00
11:35 PM,73.4,69.8,88,29.96,10.0,ESE,3.5,-,N/A,,Scattered Clouds,110,2013-07-11 03:35:00
11:55 PM,75.2,71.6,89,29.96,10.0,Calm,Calm,-,N/A,,Mostly Cloudy,0,2013-07-11 03:55:00